[[{"header":{"parameterUnit":"m.s-1","parameterCategory":1,"la1":30.2991,"la2":30.254,"lo1":-89.0895,"lo2":-89.0444,"dy":0.0017,"dx":0.0017,"nx":28,"ny":28,"refTime":"2023-08-03T09:00:00:Z","depth":0,"parameterNumber":2,"parameterNumberName":"U-component_of_WINDS"},"data":[0,0,0,0,0,0,0,0,0,0,0,0,0,0,0,0,0,0,0,0,0,0,0,0,0,0,0,0,0,0,0,0,0,0,0,0,0,0,0,0,0,0,0,0,0,0,0,0,0,0,0,0,0,0,0,0,0,0,0.6629,0.6629,0,0.6651,0.6651,0.6652,0.6652,0.6652,0.6651,0.6651,0.6672,0.6672,0.6673,0,0,0,0,0,0,0,0,0,0,0,0,0,0.6584,0.6585,0.6629,0.6629,0.663,0.6651,0.6651,0.6652,0.6652,0.6652,0.6651,0.6651,0.6671,0.6672,0.6673,0,0,0,0,0,0,0,0,0,0,0,0,0,0.6605,0.6585,0.6629,0.6632,0.6633,0.6651,0.6651,0.6652,0.6652,0.6652,0.6651,0.6651,0.6671,0.6672,0.6673,0.6689,0,0,0.6677,0.6678,0,0,0,0,0,0,0,0,0.6603,0.6606,0.6632,0.6632,0.6633,0.6648,0.6643,0.6664,0.6652,0.6645,0.6651,0.6651,0.6664,0.6666,0.6671,0.669,0.6691,0.6677,0.6678,0.6679,0.6679,0,0,0,0,0,0,0,0.6602,0.6605,0.6638,0.6632,0.6633,0.6632,0.6634,0.6647,0.6656,0.6645,0.6645,0.6648,0.6664,0.667,0.6671,0.6691,0.6677,0.6678,0.6679,0.668,0.6723,0.6724,0,0,0,0,0,0,0.66,0.6604,0.6637,0.6638,0.6617,0.6633,0.6636,0.6644,0.6656,0.6658,0.6648,0.6648,0.6668,0.667,0.6672,0.669,0.6679,0.668,0.668,0.6723,0.6723,0.6724,0,0,0,0,0,0,0.6599,0.6603,0.6636,0.6621,0.6625,0.6634,0.6643,0.6644,0.665,0.6659,0.666,0.6652,0.6668,0.667,0.6685,0.6691,0.668,0.6681,0.6722,0.6723,0.6724,0.6728,0,0,0,0,0,0,0.6598,0.6603,0.661,0.6621,0.6626,0.6649,0.6644,0.6645,0.6652,0.6652,0.6663,0.6664,0.6668,0.6683,0.6686,0.6693,0.6682,0.6722,0.6723,0.6723,0.6727,0.6729,0.673,0,0,0,0,0,0.6596,0.661,0.661,0.6614,0.6635,0.665,0.6652,0.6657,0.6653,0.6659,0.6664,0.6664,0.669,0.6684,0.6688,0.6695,0.6721,0.6722,0.6723,0.6727,0.6728,0.673,0,0,0,0,0,0,0.6598,0.6611,0.6612,0.663,0.6639,0.665,0.6658,0.6658,0.6668,0.6667,0.6671,0.6674,0.6688,0.6693,0.6686,0.671,0.6705,0.6707,0.6706,0.6708,0.6709,0.6708,0.6683,0,0,0,0,0,0.66,0.6612,0.6623,0.6637,0.6642,0.6649,0.6656,0.6658,0.6667,0.6671,0.6678,0.6686,0.6696,0.6702,0.6712,0.6728,0.673,0.6734,0.6736,0.6737,0.6738,0.6746,0.6747,0.6727,0.6727,0.6727,0,0,0.6606,0.6614,0.6621,0.6638,0.6645,0.6656,0.6652,0.6664,0.6672,0.6673,0.6687,0.6692,0.6701,0.6716,0.6723,0.672,0.6744,0.6738,0.6739,0.6739,0.6747,0.6749,0.675,0.6728,0.6728,0.6728,0,0,0.662,0.6629,0.6641,0.6648,0.666,0.6664,0.6667,0.6678,0.6682,0.6696,0.6696,0.6705,0.6723,0.6729,0.6734,0.6751,0.675,0.6754,0.676,0.6768,0.6769,0.6771,0.6775,0.6777,0.6755,0.6755,0.6755,0,0.6625,0.6642,0.6647,0.6659,0.6666,0.6667,0.6679,0.6686,0.6699,0.6704,0.6701,0.6722,0.6729,0.6745,0.6749,0.6753,0.6756,0.6752,0.6769,0.677,0.6772,0.6776,0.6778,0.6755,0.6755,0.6755,0.6755,0,0.6647,0.6659,0.6668,0.6681,0.6689,0.6701,0.6706,0.6713,0.6715,0.6719,0.6733,0.6741,0.6752,0.6756,0.6758,0.6772,0.677,0.6768,0.6763,0.6774,0.6778,0.678,0.6756,0.6756,0.6756,0.6756,0,0,0.6663,0.6679,0.6682,0.6688,0.67,0.6709,0.672,0.6731,0.6737,0.6746,0.6755,0.6769,0.6767,0.6773,0.6776,0.6782,0.6793,0.6779,0.678,0.6781,0.6808,0.6809,0.6811,0.6793,0.6793,0.6794,0.6807,0,0.6679,0.67,0.6704,0.6722,0.6732,0.6733,0.6743,0.6751,0.6755,0.6764,0.6768,0.6778,0.6776,0.6779,0.6786,0.679,0.6799,0.679,0.68,0.6801,0.6797,0.6813,0.6815,0.6827,0.6809,0.6809,0.6809,0,0.67,0.6709,0.6728,0.6738,0.6743,0.6751,0.6761,0.677,0.6778,0.6781,0.6788,0.6789,0.68,0.6795,0.6809,0.6803,0.6807,0.681,0.6811,0.6811,0.6805,0.6814,0.6831,0.6832,0.6812,0.6812,0.6812,0,0.6708,0.6726,0.674,0.6745,0.6757,0.6763,0.6768,0.6776,0.6782,0.6791,0.6794,0.6804,0.6809,0.6816,0.6819,0.6815,0.6833,0.6828,0.6834,0.6834,0.6838,0.6837,0.6855,0.6842,0.6842,0.6842,0.6842,0,0.6725,0.6736,0.6744,0.6752,0.6764,0.6769,0.678,0.6785,0.6792,0.6801,0.6802,0.681,0.6814,0.6822,0.6825,0.6836,0.6838,0.684,0.684,0.6839,0.6839,0.6842,0.6841,0.6842,0.6842,0.6842,0.6842,0,0.6737,0.6742,0.6757,0.6767,0.677,0.6778,0.6786,0.6794,0.6798,0.6808,0.6811,0.6817,0.6827,0.6831,0.6843,0.6844,0.6856,0.6857,0.6854,0.6854,0.6859,0.6859,0.6879,0.6882,0.6867,0.6868,0.6868,0,0.6746,0.6755,0.6766,0.6772,0.6777,0.6787,0.6793,0.6798,0.6804,0.6814,0.6819,0.6829,0.6837,0.6852,0.6857,0.6865,0.6865,0.6872,0.6867,0.6865,0.6864,0.6864,0.6864,0.6873,0.6873,0.6873,0.6873,0,0.6762,0.6765,0.6774,0.6784,0.6792,0.68,0.6807,0.6812,0.6817,0.6824,0.6834,0.684,0.6852,0.6861,0.687,0.6874,0.6874,0.6875,0.6877,0.6875,0.6873,0.6873,0.6856,0.6874,0.6874,0.6874,0.6874,0.6874,0.6773,0.678,0.6789,0.6799,0.6805,0.6812,0.682,0.6825,0.6833,0.6843,0.6845,0.6856,0.6863,0.6875,0.6879,0.6887,0.6885,0.6888,0.6888,0.6889,0.6889,0.6872,0.6888,0.6888,0.6888,0.6888,0.6888,0,0.6788,0.6794,0.6803,0.6814,0.6821,0.6822,0.683,0.6836,0.6845,0.6852,0.686,0.6871,0.6879,0.6885,0.6894,0.6898,0.6899,0.69,0.69,0.6901,0.689,0.6887,0.69,0.69,0.69,0.69,0.69,0.69,0.6797,0.6809,0.6812,0.6827,0.6833,0.6843,0.6848,0.6854,0.6859,0.6872,0.6879,0.6883,0.6889,0.6898,0.6906,0.6907,0.691,0.6911,0.6913,0.6903,0.6901,0.69,0.6898,0.6912,0.6912,0.6922,0.6922,0.6922]},{"header":{"parameterUnit":"m.s-1","parameterCategory":1,"la1":30.2991,"la2":30.254,"lo1":-89.0895,"lo2":-89.0444,"dy":0.0017,"dx":0.0017,"nx":28,"ny":28,"refTime":"2023-08-03T09:00:00:Z","depth":0,"parameterNumber":3,"parameterNumberName":"V-component_of_WINDS"},"data":[0,0,0,0,0,0,0,0,0,0,0,0,0,0,0,0,0,0,0,0,0,0,0,0,0,0,0,0,0,0,0,0,0,0,0,0,0,0,0,0,0,0,0,0,0,0,0,0,0,0,0,0,0,0,0,0,0,0,0.8771,0.877,0,0.8699,0.8698,0.8698,0.8639,0.8639,0.8638,0.8638,0.856,0.8559,0.8557,0,0,0,0,0,0,0,0,0,0,0,0,0,0.8853,0.8852,0.8771,0.877,0.8769,0.8699,0.8698,0.8697,0.8639,0.8639,0.8638,0.8637,0.856,0.8559,0.8557,0,0,0,0,0,0,0,0,0,0,0,0,0,0.8803,0.8852,0.8771,0.8732,0.8728,0.87,0.8698,0.8697,0.864,0.8639,0.8638,0.8637,0.8561,0.8559,0.8557,0.856,0,0,0.855,0.8549,0,0,0,0,0,0,0,0,0.8806,0.88,0.8739,0.8735,0.873,0.8677,0.8699,0.8651,0.864,0.8673,0.8638,0.8637,0.8599,0.8594,0.8582,0.8557,0.8553,0.8549,0.8548,0.8547,0.8546,0,0,0,0,0,0,0,0.881,0.8803,0.8743,0.8738,0.8733,0.8716,0.8708,0.869,0.8642,0.867,0.8666,0.8658,0.8597,0.8585,0.858,0.8552,0.855,0.8548,0.8546,0.8545,0.8523,0.8524,0,0,0,0,0,0,0.882,0.8806,0.8745,0.874,0.8767,0.8716,0.8707,0.8695,0.8642,0.8633,0.8659,0.8656,0.8589,0.8583,0.8577,0.8577,0.8547,0.8545,0.8544,0.8523,0.8524,0.8524,0,0,0,0,0,0,0.8822,0.8815,0.8748,0.8772,0.8762,0.8715,0.8703,0.8694,0.8682,0.8634,0.8624,0.8656,0.8588,0.858,0.8565,0.8573,0.8544,0.8542,0.8522,0.8523,0.8524,0.8577,0,0,0,0,0,0,0.8824,0.8816,0.8818,0.8773,0.8761,0.8738,0.8703,0.8693,0.8679,0.8674,0.8628,0.862,0.8587,0.8568,0.8562,0.857,0.854,0.8521,0.8522,0.8524,0.8574,0.858,0.8584,0,0,0,0,0,0.8827,0.8835,0.8819,0.8811,0.8763,0.8739,0.8732,0.8696,0.868,0.8681,0.8649,0.8621,0.8573,0.8567,0.856,0.8567,0.852,0.8522,0.8523,0.8572,0.8579,0.8584,0,0,0,0,0,0,0.8882,0.8829,0.881,0.8803,0.8776,0.8729,0.873,0.8704,0.868,0.8676,0.863,0.862,0.8609,0.8586,0.8581,0.8566,0.8543,0.8543,0.8582,0.8588,0.8593,0.8599,0.8538,0,0,0,0,0,0.8894,0.888,0.8833,0.8832,0.882,0.8777,0.8765,0.8739,0.8709,0.8697,0.8664,0.8634,0.8612,0.8599,0.8576,0.857,0.8558,0.8571,0.8576,0.8581,0.8581,0.8575,0.8579,0.853,0.853,0.853,0,0,0.8917,0.8886,0.888,0.8842,0.8818,0.8803,0.8768,0.8754,0.8742,0.8694,0.8677,0.8652,0.8616,0.8605,0.8598,0.8585,0.8592,0.8583,0.8587,0.8585,0.8577,0.8582,0.8586,0.8531,0.8531,0.8531,0,0,0.8952,0.8928,0.8924,0.89,0.8865,0.8836,0.8835,0.8792,0.8773,0.8756,0.872,0.8703,0.8667,0.8642,0.8625,0.8648,0.8621,0.8642,0.8669,0.8663,0.8667,0.867,0.8677,0.8681,0.8643,0.8643,0.8643,0,0.8985,0.8963,0.8925,0.8913,0.8896,0.8853,0.8847,0.8826,0.8784,0.8773,0.8759,0.8712,0.8684,0.8666,0.8672,0.8659,0.8655,0.8647,0.867,0.8672,0.8675,0.8681,0.8684,0.8646,0.8646,0.8645,0.8645,0,0.9005,0.899,0.899,0.8952,0.8936,0.8927,0.8886,0.8873,0.8848,0.882,0.8802,0.8767,0.8736,0.873,0.8705,0.8707,0.87,0.8679,0.8654,0.8683,0.8688,0.869,0.865,0.8649,0.8648,0.8647,0,0,0.9073,0.9013,0.9014,0.8995,0.8952,0.8939,0.8927,0.8897,0.8887,0.8859,0.8847,0.8816,0.8796,0.8776,0.8748,0.8743,0.8762,0.8721,0.872,0.8729,0.876,0.8776,0.878,0.8743,0.8744,0.8744,0.8763,0,0.91,0.9079,0.9043,0.9032,0.9017,0.8975,0.8964,0.8935,0.8908,0.889,0.8859,0.8838,0.8813,0.8801,0.8794,0.8761,0.8767,0.8759,0.873,0.8729,0.874,0.8783,0.88,0.882,0.8765,0.8765,0.8765,0,0.913,0.9105,0.9093,0.905,0.9042,0.9034,0.9003,0.8986,0.8951,0.8932,0.891,0.8879,0.8862,0.884,0.8815,0.881,0.8795,0.8777,0.8777,0.8772,0.8749,0.8779,0.8826,0.8829,0.8768,0.8768,0.8768,0,0.918,0.9143,0.9131,0.9117,0.9066,0.9061,0.9039,0.9004,0.8988,0.896,0.8949,0.8919,0.8903,0.8879,0.884,0.8828,0.8819,0.8794,0.8801,0.8802,0.8801,0.8801,0.8845,0.8793,0.8792,0.8792,0.8792,0,0.9214,0.9208,0.9153,0.9145,0.9137,0.9095,0.9086,0.906,0.9029,0.9014,0.8975,0.8962,0.8911,0.8891,0.886,0.8843,0.8836,0.8819,0.881,0.8822,0.8824,0.8812,0.8809,0.8793,0.8793,0.8793,0.8793,0,0.9268,0.9232,0.9215,0.9168,0.9156,0.9152,0.9111,0.9101,0.9071,0.9053,0.9046,0.8999,0.8973,0.8932,0.8894,0.8872,0.8861,0.8847,0.8873,0.8868,0.8877,0.8876,0.8914,0.8916,0.8863,0.8863,0.8864,0,0.9293,0.9287,0.924,0.9228,0.9208,0.9189,0.9172,0.913,0.9114,0.9073,0.9068,0.9039,0.9014,0.8974,0.8935,0.8905,0.889,0.8905,0.8885,0.8897,0.8889,0.889,0.8888,0.891,0.8911,0.8912,0.8912,0,0.9339,0.9321,0.9299,0.9271,0.9253,0.9228,0.9202,0.9193,0.9144,0.9128,0.9102,0.9082,0.9043,0.9014,0.8979,0.8954,0.8924,0.8919,0.8918,0.893,0.8945,0.8936,0.8885,0.8918,0.8917,0.8917,0.8917,0.8916,0.9378,0.9371,0.9336,0.9313,0.9289,0.9264,0.9252,0.9221,0.9199,0.9165,0.9141,0.9116,0.9079,0.9028,0.9005,0.8983,0.897,0.897,0.897,0.897,0.8974,0.8949,0.8976,0.8976,0.8976,0.8975,0.8975,0,0.9422,0.9398,0.9377,0.9341,0.9322,0.9297,0.9266,0.9251,0.923,0.9199,0.9175,0.9144,0.9115,0.9074,0.9042,0.9032,0.9018,0.9025,0.9025,0.902,0.8988,0.8991,0.9037,0.9037,0.9037,0.9037,0.9037,0.9037,0.9443,0.9429,0.9406,0.9378,0.9353,0.9329,0.9313,0.929,0.9265,0.9232,0.9209,0.9182,0.9146,0.9111,0.9083,0.9071,0.9061,0.9072,0.9056,0.9028,0.9022,0.9017,0.9019,0.9071,0.9071,0.909,0.909,0.909]}]]